Time,TemperatureF,DewpointF,PressureIn,WindDirection,WindDirectionDegrees,WindSpeedMPH,WindSpeedGustMPH,Humidity,HourlyPrecipIn,Conditions,Clouds,dailyrainin,SoftwareType,DateUTC
2013-02-21 00:02:00,30.3,19.2,29.57,NW,319,15.0,21.0,63,0.00,,,0.53,VWS V13.01,2013-02-21 05:02:00,
2013-02-21 00:32:00,30.1,19.0,29.57,NW,307,13.0,19.0,63,0.00,,,0.00,VWS V13.01,2013-02-21 05:32:00,
2013-02-21 01:02:00,29.8,18.8,29.58,NW,309,9.0,21.0,63,0.00,,,0.00,VWS V13.01,2013-02-21 06:02:00,
2013-02-21 01:32:00,30.0,18.2,29.59,NNW,344,12.0,21.0,61,0.00,,,0.00,VWS V13.01,2013-02-21 06:32:00,
2013-02-21 02:02:00,29.8,18.0,29.58,NNW,330,25.0,25.0,61,0.00,,,0.00,VWS V13.01,2013-02-21 07:02:00,
2013-02-21 02:32:00,29.4,17.6,29.59,NNW,331,7.0,25.0,61,0.00,,,0.00,VWS V13.01,2013-02-21 07:32:00,
2013-02-21 03:02:00,28.9,17.9,29.59,NW,311,9.0,16.0,63,0.00,,,0.00,VWS V13.01,2013-02-21 08:02:00,
2013-02-21 03:32:00,28.1,17.9,29.60,NW,321,6.0,9.0,65,0.00,,,0.00,VWS V13.01,2013-02-21 08:32:00,
2013-02-21 04:02:00,27.6,17.4,29.60,North,349,6.0,14.0,65,0.00,,,0.00,VWS V13.01,2013-02-21 09:02:00,
2013-02-21 04:32:00,27.4,16.1,29.60,NNW,331,11.0,20.0,62,0.00,,,0.00,VWS V13.01,2013-02-21 09:32:00,
2013-02-21 05:02:00,26.9,15.6,29.61,NW,325,11.0,17.0,62,0.00,,,0.00,VWS V13.01,2013-02-21 10:02:00,
2013-02-21 05:32:00,26.4,14.8,29.62,NNW,327,12.0,16.0,61,0.00,,,0.00,VWS V13.01,2013-02-21 10:32:00,
2013-02-21 06:02:00,25.8,14.2,29.64,NW,315,14.0,18.0,61,0.00,,,0.00,VWS V13.01,2013-02-21 11:02:00,
2013-02-21 06:32:00,25.2,14.0,29.65,NW,325,10.0,21.0,62,0.00,,,0.00,VWS V13.01,2013-02-21 11:32:00,
2013-02-21 07:02:00,24.7,13.9,29.67,NW,308,10.0,18.0,63,0.00,,,0.00,VWS V13.01,2013-02-21 12:02:00,
2013-02-21 07:32:00,24.7,14.3,29.68,NNW,344,12.0,18.0,64,0.00,,,0.00,VWS V13.01,2013-02-21 12:32:00,
2013-02-21 08:02:00,24.6,13.4,29.68,NNW,336,16.0,21.0,62,0.00,,,0.00,VWS V13.01,2013-02-21 13:02:00,
2013-02-21 08:32:00,24.7,12.8,29.68,NW,325,12.0,22.0,60,0.00,,,0.00,VWS V13.01,2013-02-21 13:32:00,
2013-02-21 09:02:00,24.9,12.6,29.68,NNW,346,10.0,21.0,59,0.00,,,0.00,VWS V13.01,2013-02-21 14:02:00,
2013-02-21 09:32:00,25.4,13.1,29.68,NNW,338,13.0,20.0,59,0.00,,,0.00,VWS V13.01,2013-02-21 14:32:00,
2013-02-21 10:02:00,26.5,13.7,29.68,North,355,13.0,22.0,58,0.00,,,0.00,VWS V13.01,2013-02-21 15:02:00,
2013-02-21 10:32:00,27.0,14.2,29.68,North,10,12.0,24.0,58,0.00,,,0.00,VWS V13.01,2013-02-21 15:32:00,
2013-02-21 11:02:00,26.6,13.8,29.68,NNW,333,20.0,22.0,58,0.00,,,0.00,VWS V13.01,2013-02-21 16:02:00,
2013-02-21 11:32:00,26.3,14.3,29.69,North,360,13.0,26.0,60,0.00,,,0.00,VWS V13.01,2013-02-21 16:32:00,
2013-02-21 12:02:00,27.7,16.4,29.68,NE,55,4.0,25.0,62,0.00,,,0.00,VWS V13.01,2013-02-21 17:02:00,
2013-02-21 12:32:00,28.2,17.6,29.68,North,355,14.0,24.0,64,0.00,,,0.00,VWS V13.01,2013-02-21 17:32:00,
2013-02-21 13:02:00,29.0,19.8,29.68,NNE,12,17.0,26.0,68,0.00,,,0.00,VWS V13.01,2013-02-21 18:02:00,
2013-02-21 13:32:00,28.1,18.9,29.69,North,9,8.0,26.0,68,0.00,,,0.00,VWS V13.01,2013-02-21 18:32:00,
2013-02-21 14:02:00,28.3,20.1,29.70,North,5,11.0,25.0,71,0.00,,,0.00,VWS V13.01,2013-02-21 19:02:00,
2013-02-21 14:32:00,28.0,20.8,29.70,North,360,10.0,24.0,74,0.00,,,0.00,VWS V13.01,2013-02-21 19:32:00,
2013-02-21 15:02:00,27.5,21.9,29.71,North,360,17.0,28.0,79,0.00,,,0.00,VWS V13.01,2013-02-21 20:02:00,
2013-02-21 15:32:00,27.7,22.0,29.72,North,360,16.0,25.0,79,0.00,,,0.00,VWS V13.01,2013-02-21 20:32:00,
2013-02-21 16:02:00,28.5,22.2,29.74,North,360,11.0,25.0,77,0.00,,,0.00,VWS V13.01,2013-02-21 21:02:00,
2013-02-21 16:32:00,28.8,22.2,29.75,NNE,13,18.0,25.0,76,0.00,,,0.00,VWS V13.01,2013-02-21 21:32:00,
2013-02-21 17:02:00,29.3,22.4,29.77,North,360,15.0,27.0,75,0.00,,,0.00,VWS V13.01,2013-02-21 22:02:00,
2013-02-21 17:32:00,30.0,22.7,29.79,North,355,14.0,27.0,74,0.00,,,0.00,VWS V13.01,2013-02-21 22:32:00,
2013-02-21 18:02:00,30.8,23.8,29.81,North,355,18.0,25.0,75,0.00,,,0.00,VWS V13.01,2013-02-21 23:02:00,
2013-02-21 18:32:00,31.3,24.3,29.83,NNE,24,12.0,25.0,75,0.00,,,0.00,VWS V13.01,2013-02-21 23:32:00,
2013-02-21 19:02:00,31.8,24.8,29.86,NNE,19,14.0,24.0,75,0.00,,,0.00,VWS V13.01,2013-02-22 00:02:00,
2013-02-21 19:32:00,32.1,25.1,29.88,North,360,11.0,28.0,75,0.00,,,0.00,VWS V13.01,2013-02-22 00:32:00,
2013-02-21 20:02:00,32.2,25.5,29.91,NNE,15,17.0,25.0,76,0.00,,,0.00,VWS V13.01,2013-02-22 01:02:00,
2013-02-21 20:32:00,32.7,26.3,29.93,North,350,9.0,25.0,77,0.00,,,0.00,VWS V13.01,2013-02-22 01:32:00,
2013-02-21 21:02:00,33.2,26.8,29.96,NNE,19,12.0,22.0,77,0.00,,,0.00,VWS V13.01,2013-02-22 02:02:00,
2013-02-21 21:32:00,33.4,27.0,29.98,North,11,8.0,22.0,77,0.00,,,0.00,VWS V13.01,2013-02-22 02:32:00,
2013-02-21 22:02:00,33.5,27.1,30.00,North,355,12.0,19.0,77,0.00,,,0.00,VWS V13.01,2013-02-22 03:02:00,
2013-02-21 22:32:00,33.8,27.7,30.01,North,360,11.0,18.0,78,0.00,,,0.00,VWS V13.01,2013-02-22 03:32:00,
2013-02-21 23:02:00,34.9,27.8,30.02,NE,46,13.0,17.0,75,0.00,,,0.00,VWS V13.01,2013-02-22 04:02:00,
2013-02-21 23:32:00,35.5,27.0,30.04,NNE,28,15.0,24.0,71,0.00,,,0.00,VWS V13.01,2013-02-22 04:32:00,